Location: Alfortville
(48.8058°N, 2.4204°E)
Time: 04:17:25
(UTC+00:00)

USA 229 DEB - Pass Details

Date: 05 June 2022
Orbit: 934 x 1278 km, 63.4° (Epoch: 24 May)

Event Time Altitude Azimuth Distance (km) Brightness Sun altitude
Rises 22:20:01 0° 316° (NW) 3,974 8.0 -15.9°
Reaches altitude 10° 22:22:41 10° 312° (NW) 3,059 7.1 -16.0°
Maximum altitude 22:29:48 53° 239° (WSW) 1,457 4.3 -16.4°
Enters shadow 22:34:39 23° 173° (S) 2,376 4.9 -16.7°
